N631LG KPHL-KBOS

Flight info

Callsign N631LG
Flight time N/A
Altitude 31000
Route DITCH T416 ++DRIFT++ T320 YANTC T224 WOONS
Aircraft TBM9/L-SDFGRWY/S

Departure

Time 2026-05-07 00:43
Airport Philadelphia International Airport (KPHL)

Arrival

Time N/A
Airport Boston Logan International Airport (KBOS)
Time Latitude Longitude Altitude Speed Heading
2026-05-07 00:07 39.86205 -75.25048 19 ft 0 kts 10°
2026-05-07 00:39 39.86262 -75.24977 19 ft 23 kts 76°
2026-05-07 00:40 39.86313 -75.24809 19 ft 9 kts 16°
2026-05-07 00:40 39.86348 -75.24813 20 ft 0 kts 348°
2026-05-07 00:41 39.86402 -75.24835 19 ft 5 kts 348°
2026-05-07 00:42 39.86420 -75.24840 19 ft 15 kts 347°
2026-05-07 00:42 39.86588 -75.24911 19 ft 25 kts 298°
2026-05-07 00:42 39.86544 -75.25187 20 ft 60 kts 253°
2026-05-07 00:42 39.86398 -75.25980 129 ft 109 kts 253°
2026-05-07 00:43 39.86056 -75.26901 596 ft 122 kts 219°
2026-05-07 00:43 39.85209 -75.27276 1083 ft 138 kts 199°
2026-05-07 00:43 39.84236 -75.27575 1609 ft 152 kts 200°
2026-05-07 00:43 39.83118 -75.27905 1911 ft 166 kts 199°
2026-05-07 00:44 39.82008 -75.28216 2356 ft 163 kts 199°
2026-05-07 00:44 39.80908 -75.28502 2806 ft 161 kts 198°
2026-05-07 00:44 39.79803 -75.28784 3252 ft 161 kts 197°
2026-05-07 00:44 39.78679 -75.28496 3682 ft 178 kts 154°
2026-05-07 00:45 39.77937 -75.27167 4100 ft 194 kts 110°
2026-05-07 00:45 39.77873 -75.25384 4551 ft 197 kts 88°
2026-05-07 00:45 39.77933 -75.23606 4995 ft 197 kts 89°
2026-05-07 00:45 39.77996 -75.21838 5435 ft 197 kts 89°
2026-05-07 00:46 39.78063 -75.20069 5864 ft 200 kts 88°
2026-05-07 00:46 39.77949 -75.18261 6246 ft 202 kts 104°
2026-05-07 00:46 39.77826 -75.16412 6602 ft 208 kts 90°
2026-05-07 00:46 39.77910 -75.14518 6960 ft 211 kts 87°
2026-05-07 00:47 39.78004 -75.12586 7330 ft 214 kts 89°
2026-05-07 00:47 39.78073 -75.10651 7699 ft 217 kts 90°
2026-05-07 00:47 39.78139 -75.08663 8072 ft 219 kts 90°
2026-05-07 00:47 39.78208 -75.06681 8448 ft 221 kts 90°
2026-05-07 00:48 39.78278 -75.04698 8821 ft 223 kts 90°
2026-05-07 00:48 39.78347 -75.02671 9209 ft 225 kts 90°
2026-05-07 00:48 39.78418 -75.00631 9597 ft 227 kts 90°
2026-05-07 00:48 39.78490 -74.98558 9965 ft 228 kts 91°
2026-05-07 00:49 39.78560 -74.96500 10317 ft 229 kts 91°
2026-05-07 00:49 39.78630 -74.94424 10670 ft 231 kts 91°
2026-05-07 00:49 39.78700 -74.92353 11026 ft 232 kts 91°
2026-05-07 00:49 39.78771 -74.90248 11390 ft 233 kts 91°
2026-05-07 00:50 39.78842 -74.88119 11761 ft 234 kts 91°
2026-05-07 00:50 39.78912 -74.85979 11991 ft 244 kts 91°
2026-05-07 00:50 39.78980 -74.83704 12001 ft 259 kts 91°
2026-05-07 00:50 39.79056 -74.81306 12007 ft 269 kts 90°
2026-05-07 00:51 39.79138 -74.78855 12105 ft 271 kts 90°
2026-05-07 00:51 39.79221 -74.76475 12482 ft 262 kts 91°
2026-05-07 00:51 39.79300 -74.74107 12863 ft 260 kts 91°
2026-05-07 00:51 39.79376 -74.71749 13248 ft 262 kts 90°
2026-05-07 00:52 39.79568 -74.69384 13630 ft 266 kts 86°
2026-05-07 00:52 39.79772 -74.66983 13985 ft 268 kts 86°
2026-05-07 00:52 39.79965 -74.64591 14330 ft 270 kts 86°
2026-05-07 00:52 39.80167 -74.62142 14678 ft 272 kts 86°
2026-05-07 00:53 39.80370 -74.59691 15037 ft 273 kts 85°
2026-05-07 00:53 39.80576 -74.57200 15398 ft 275 kts 85°
2026-05-07 00:53 39.80779 -74.54741 15764 ft 276 kts 85°
2026-05-07 00:53 39.80984 -74.52234 16149 ft 278 kts 85°
2026-05-07 00:54 39.81189 -74.49733 16520 ft 279 kts 85°
2026-05-07 00:54 39.81395 -74.47221 16896 ft 281 kts 84°
2026-05-07 00:54 39.81603 -74.44637 17011 ft 294 kts 84°
2026-05-07 00:54 39.81739 -74.41927 17023 ft 306 kts 91°
2026-05-07 00:55 39.81721 -74.39096 17023 ft 315 kts 92°
2026-05-07 00:55 39.81704 -74.36244 17026 ft 320 kts 92°
2026-05-07 00:55 39.81707 -74.33296 17025 ft 324 kts 91°
2026-05-07 00:55 39.81711 -74.30362 17027 ft 326 kts 91°
2026-05-07 00:56 39.81706 -74.27405 17024 ft 328 kts 92°
2026-05-07 00:56 39.81699 -74.24450 17024 ft 329 kts 92°
2026-05-07 00:56 39.81694 -74.21476 17024 ft 329 kts 92°
2026-05-07 00:56 39.81688 -74.18468 17023 ft 329 kts 92°
2026-05-07 00:57 39.81682 -74.15504 17022 ft 330 kts 92°
2026-05-07 00:57 39.81673 -74.12530 17023 ft 330 kts 92°
2026-05-07 00:57 39.81665 -74.09543 17020 ft 330 kts 92°
2026-05-07 00:57 39.81656 -74.06550 17021 ft 330 kts 92°
2026-05-07 00:58 39.81646 -74.03566 17020 ft 329 kts 92°
2026-05-07 00:58 39.81636 -74.00577 17022 ft 329 kts 92°
2026-05-07 00:58 39.81624 -73.97629 17022 ft 329 kts 92°
2026-05-07 00:58 39.81612 -73.94632 17020 ft 329 kts 92°
2026-05-07 00:59 39.81586 -73.88692 17022 ft 329 kts 92°
2026-05-07 00:59 39.81571 -73.85732 17025 ft 329 kts 92°
2026-05-07 00:59 39.81556 -73.82743 17024 ft 329 kts 92°
2026-05-07 01:00 39.81540 -73.79748 17030 ft 329 kts 92°
2026-05-07 01:00 39.81524 -73.76799 17031 ft 329 kts 92°
2026-05-07 01:00 39.81506 -73.73818 17031 ft 328 kts 92°
2026-05-07 01:00 39.81571 -73.70872 17026 ft 328 kts 82°
2026-05-07 01:01 39.82138 -73.68000 17027 ft 326 kts 66°
2026-05-07 01:01 39.83182 -73.65391 17034 ft 320 kts 51°
2026-05-07 01:01 39.84549 -73.63150 17034 ft 317 kts 44°
2026-05-07 01:01 39.85960 -73.60927 17031 ft 321 kts 45°
2026-05-07 01:02 39.87373 -73.58669 17042 ft 325 kts 45°
2026-05-07 01:02 39.88815 -73.56365 17041 ft 328 kts 45°
2026-05-07 01:02 39.90288 -73.54082 17033 ft 326 kts 40°
2026-05-07 01:02 39.91938 -73.52131 17028 ft 324 kts 34°
2026-05-07 01:03 39.93633 -73.50150 17033 ft 325 kts 36°
2026-05-07 01:03 39.95287 -73.48166 17031 ft 326 kts 36°
2026-05-07 01:03 39.96973 -73.46164 17037 ft 326 kts 35°
2026-05-07 01:03 39.98665 -73.44173 17038 ft 326 kts 35°
2026-05-07 01:04 40.00355 -73.42176 17033 ft 327 kts 35°
2026-05-07 01:04 40.02035 -73.40182 17032 ft 327 kts 35°
2026-05-07 01:04 40.03713 -73.38191 17032 ft 327 kts 35°
2026-05-07 01:04 40.05404 -73.36186 17034 ft 327 kts 35°
2026-05-07 01:05 40.07077 -73.34201 17036 ft 328 kts 36°
2026-05-07 01:05 40.08763 -73.32197 17035 ft 328 kts 36°
2026-05-07 01:05 40.10465 -73.30173 17035 ft 328 kts 36°
2026-05-07 01:05 40.12145 -73.28175 17035 ft 328 kts 36°
2026-05-07 01:06 40.13839 -73.26156 17029 ft 328 kts 36°
2026-05-07 01:06 40.15534 -73.24136 17032 ft 328 kts 36°
2026-05-07 01:06 40.17203 -73.22144 17030 ft 329 kts 36°
2026-05-07 01:06 40.18901 -73.20117 17027 ft 329 kts 36°
2026-05-07 01:07 40.20601 -73.18087 17028 ft 329 kts 36°
2026-05-07 01:07 40.22274 -73.16085 17028 ft 329 kts 36°
2026-05-07 01:07 40.23975 -73.14051 17026 ft 329 kts 36°
2026-05-07 01:07 40.25649 -73.12046 17026 ft 329 kts 36°
2026-05-07 01:08 40.27343 -73.10018 17023 ft 329 kts 36°
2026-05-07 01:08 40.29034 -73.07993 17024 ft 329 kts 36°
2026-05-07 01:08 40.30748 -73.05938 17026 ft 330 kts 36°
2026-05-07 01:08 40.32424 -73.03927 17024 ft 330 kts 36°
2026-05-07 01:09 40.34118 -73.01895 17025 ft 330 kts 36°
2026-05-07 01:09 40.35245 -73.00542 17026 ft 330 kts 36°
2026-05-07 01:09 40.37497 -72.97838 17028 ft 330 kts 36°
2026-05-07 01:09 40.38624 -72.96482 17029 ft 330 kts 36°
2026-05-07 01:10 40.40338 -72.94419 17029 ft 330 kts 36°
2026-05-07 01:10 40.42028 -72.92385 17028 ft 330 kts 36°
2026-05-07 01:10 40.43727 -72.90338 17029 ft 330 kts 36°
2026-05-07 01:10 40.45421 -72.88293 17029 ft 331 kts 36°
2026-05-07 01:11 40.47121 -72.86241 17026 ft 330 kts 36°
2026-05-07 01:11 40.48790 -72.84224 17026 ft 331 kts 36°
2026-05-07 01:11 40.50488 -72.82171 17027 ft 331 kts 36°
2026-05-07 01:11 40.52182 -72.80123 17025 ft 331 kts 36°
2026-05-07 01:12 40.53868 -72.78081 17026 ft 331 kts 37°
2026-05-07 01:12 40.55586 -72.75998 17026 ft 331 kts 37°
2026-05-07 01:12 40.57267 -72.73958 17025 ft 332 kts 37°